GW1464 Weather Reports


Display with metric or nautical units.
time (UTC)temp
F
wind
direction
speed
MPH
gust
MPH
rain 1hr
in
rain 24hr
in
rain mn
in
humidity
%
barometer
mb
20260507134600 50 90 5.0 13.0 0.00 0.00 0.00 37 1012.5
20260507133103 49 323 4.0 12.0 0.00 0.00 0.00 38 1012.5
20260507131620 50 320 6.0 13.0 0.00 0.00 0.00 37 1012.5
20260507130107 49 350 2.0 8.0 0.00 0.00 0.00 40 1012.2
20260507124603 46 123 0.0 2.0 0.00 0.00 0.00 44 1012.0
20260507123105 45 99 0.0 3.0 0.00 0.00 0.00 45 1011.9
20260507121558 43 0 0.0 5.0 0.00 0.00 0.00 45 1011.8
20260507120057 43 0 0.0 3.0 0.00 0.00 0.00 46 1011.9
20260507114557 43 246 1.0 7.0 0.00 0.00 0.00 46 1011.8
20260507113131 43 315 0.0 9.0 0.00 0.00 0.00 45 1011.6
20260507111556 43 271 1.0 6.0 0.00 0.00 0.00 44 1011.4
20260507110057 42 273 1.0 5.0 0.00 0.00 0.00 44 1011.3
20260507104609 42 217 2.0 8.0 0.00 0.00 0.00 44 1011.3
20260507103059 40 0 0.0 4.0 0.00 0.00 0.00 42 1011.3
20260507101558 41 0 0.0 6.0 0.00 0.00 0.00 41 1011.2
20260507100100 41 219 2.0 6.0 0.00 0.00 0.00 39 1010.8
20260507094615 42 216 2.0 8.0 0.00 0.00 0.00 38 1010.9
20260507093057 42 0 2.0 6.0 0.00 0.00 0.00 38 1010.7
20260507091556 42 225 2.0 9.0 0.00 0.00 0.00 38 1010.8
20260507090056 42 211 2.0 8.0 0.00 0.00 0.00 38 1010.7
20260507084601 41 251 3.0 7.0 0.00 0.00 0.00 38 1010.6
20260507083056 38 0 1.0 7.0 0.00 0.00 0.00 43 1010.6
20260507081556 29 0 1.0 5.0 0.00 0.00 0.00 56 1010.6
20260507074558 23 0 0.0 2.0 0.00 0.00 0.00 65 1011.2
20260507073059 23 0 0.0 0.0 0.00 0.00 0.00 65 1011.3
20260507071557 23 0 0.0 1.0 0.00 0.00 0.00 65 1011.4
20260507070109 23 0 0.0 3.0 0.00 0.00 0.00 64 1011.5
20260507064604 23 0 0.0 4.0 0.00 0.00 0.00 63 1011.5
20260507063101 23 61 0.0 3.0 0.00 0.00 0.00 64 1011.7
20260507061557 22 0 0.0 4.0 0.00 0.00 0.00 65 1011.8
20260507060058 22 0 0.0 1.0 0.00 0.00 0.00 64 1011.7
20260507054558 23 0 0.0 0.0 0.00 0.00 0.00 63 1011.9
20260507053059 23 0 0.0 2.0 0.00 0.00 0.00 62 1011.9
20260507051607 24 0 0.0 2.0 0.00 0.00 0.00 61 1012.1
20260507050109 24 293 0.0 1.0 0.00 0.00 0.00 61 1012.3
20260507044600 24 293 0.0 4.0 0.00 0.00 0.00 60 1012.3
20260507043057 25 293 0.0 3.0 0.00 0.00 0.00 58 1012.4
20260507041557 26 0 0.0 0.0 0.00 0.00 0.00 56 1012.7
20260507040106 27 0 0.0 0.0 0.00 0.00 0.00 54 1012.9
20260507034559 28 0 0.0 0.0 0.00 0.00 0.00 51 1013.2
20260507033100 30 0 0.0 0.0 0.00 0.00 0.00 51 1013.3
20260507031556 32 0 0.0 0.0 0.00 0.00 0.00 46 1013.3
20260507030059 34 0 0.0 0.0 0.00 0.00 0.00 44 1013.6
20260507024558 36 0 0.0 0.0 0.00 0.00 0.00 40 1013.4
20260507023057 38 0 0.0 0.0 0.00 0.00 0.00 39 1013.3
20260507021611 40 0 0.0 3.0 0.00 0.00 0.00 35 1013.3
20260507020057 41 0 0.0 2.0 0.00 0.00 0.00 34 1013.2
20260507014600 42 219 1.0 6.0 0.00 0.00 0.00 32 1013.2
20260507013103 43 0 0.0 6.0 0.00 0.00 0.00 31 1013.1
20260507011600 43 251 1.0 7.0 0.00 0.00 0.00 31 1013.1
20260507004557 44 245 3.0 8.0 0.00 0.00 0.00 29 1013.2
20260507003056 45 315 3.0 9.0 0.00 0.00 0.00 28 1013.4
20260507001609 45 230 3.0 9.0 0.00 0.00 0.00 29 1013.5
20260507000101 44 15 2.0 14.0 0.00 0.00 0.00 28 1013.8
20260506234624 45 238 4.0 12.0 0.00 0.00 0.00 28 1013.8
20260506233100 45 229 3.0 14.0 0.00 0.00 0.00 28 1014.0
20260506231557 46 265 4.0 14.0 0.00 0.00 0.00 28 1014.0
20260506230100 47 310 3.0 19.0 0.00 0.00 0.00 28 1014.1
20260506224556 46 322 4.0 11.0 0.00 0.00 0.00 31 1014.0
20260506223101 46 309 5.0 12.0 0.00 0.00 0.00 29 1014.2
20260506221557 46 212 3.0 12.0 0.00 0.00 0.00 30 1014.4
20260506220056 45 236 6.0 17.0 0.00 0.00 0.00 30 1014.6
20260506214557 45 325 6.0 16.0 0.00 0.00 0.00 30 1014.9
20260506213059 44 300 11.0 16.0 0.00 0.00 0.00 29 1015.1
20260506211558 45 250 3.0 13.0 0.00 0.00 0.00 31 1015.3
20260506210056 44 321 5.0 15.0 0.00 0.00 0.00 32 1015.4
20260506204600 43 275 6.0 17.0 0.00 0.00 0.00 32 1015.6
20260506203058 43 302 6.0 16.0 0.00 0.00 0.00 31 1015.5
20260506201558 43 249 7.0 16.0 0.00 0.00 0.00 31 1015.8
20260506200111 43 340 6.0 15.0 0.00 0.00 0.00 31 1015.9
20260506194614 42 234 8.0 17.0 0.00 0.00 0.00 34 1015.9
20260506193100 42 290 7.0 16.0 0.00 0.00 0.00 35 1016.1
20260506191556 42 192 5.0 14.0 0.00 0.00 0.00 37 1016.2
20260506190100 42 350 5.0 11.0 0.00 0.00 0.00 38 1016.4
20260506184605 40 350 7.0 13.0 0.00 0.00 0.00 38 1016.5
20260506183105 41 9 4.0 14.0 0.00 0.00 0.00 38 1016.5
20260506181600 40 234 6.0 13.0 0.00 0.00 0.00 40 1016.7
20260506180057 40 277 5.0 15.0 0.00 0.00 0.00 40 1016.9
20260506174602 39 173 2.0 14.0 0.00 0.00 0.00 41 1017.1
20260506173112 38 214 7.0 14.0 0.00 0.00 0.00 41 1017.2
20260506171600 38 325 5.0 14.0 0.00 0.00 0.00 43 1017.4
20260506170057 38 207 3.0 14.0 0.00 0.00 0.00 43 1017.4
20260506164558 37 250 5.0 11.0 0.00 0.00 0.00 45 1017.4
20260506163104 37 308 6.0 16.0 0.00 0.00 0.00 44 1017.4
20260506161605 37 352 5.0 12.0 0.00 0.00 0.00 45 1017.5
20260506160058 36 286 4.0 9.0 0.00 0.00 0.00 45 1017.6
20260506154558 34 243 2.0 7.0 0.00 0.00 0.00 47 1017.7
20260506153056 34 350 2.0 10.0 0.00 0.00 0.00 48 1017.7
20260506151608 33 23 4.0 10.0 0.00 0.00 0.00 50 1017.8
20260506150056 32 0 3.0 10.0 0.00 0.00 0.00 51 1017.8
20260506144603 31 277 3.0 13.0 0.00 0.00 0.00 52 1017.8
20260506143100 31 205 4.0 8.0 0.00 0.00 0.00 53 1018.0
20260506141558 30 360 3.0 11.0 0.00 0.00 0.00 55 1017.9
20260506140108 29 24 4.0 10.0 0.00 0.00 0.00 57 1018.0